Volver al catálogo

DELTA 1 DEB

ActivoPO
NORAD 26840·DEBRIS·🇺🇸 United States

Lanzado Jun 12, 1975 desde Vandenberg Space Force Base

Loading…

Próximos Pases (próximas 24 horas)

TLE

EnvejeciendoSource: Space-Track

Época: Sep 11, 2026, 03:16 UTC

1 26840U 75052KU  26254.13670250  .00000006  00000-0  15722-3 0  9998
2 26840  99.6994 133.8072 0363439 219.4240 298.9401 12.73397506603940

Sigue DELTA 1 DEB en tiempo real con AllMySat

Download on the App Store